Regional Weather Roundup
Issued by NWS

Home | Current Version | Previous Version | Graphics & Text | Print | Product List | Glossary On
Versions: 1 2 3 4 5 6 7 8 9 10 11 12 13 14 15 16 17 18 19 20 21 22 23 24 25 26 27 28 29 30 31 32 33 34 35 36 37 38 39 40 41 42 43 44 45 46 47 48 49 50
000
ASUS43 KBIS 230010
RWRND

NORTH DAKOTA REGIONAL WEATHER ROUNDUP
NATIONAL WEATHER SERVICE BISMARCK ND
700 PM CDT WED OCT 22 2014

NOTE: "FAIR" INDICATES FEW OR NO CLOUDS BELOW 12,000 FEET WITH NO
SIGNIFICANT WEATHER AND/OR OBSTRUCTIONS TO VISIBILITY.


NDZ001>003-009>011-017-230100-
NORTHWEST NORTH DAKOTA

CITY           SKY/WX    TMP DP  RH WIND       PRES   REMARKS
WILLISTON      CLEAR     57  36  45 W9        29.82R
6HR MIN TEMP:  57; 6HR MAX TEMP:  63;

MINOT          CLOUDY    58  42  55 SW12      29.80R
MINOT AFB      CLOUDY    56  45  64 W8        29.79R
$$

NDZ018>021-031>035-040>046-230100-
SOUTHWEST NORTH DAKOTA

CITY           SKY/WX    TMP DP  RH WIND       PRES   REMARKS
BISMARCK       CLEAR     60  38  43 W10       29.87R
6HR MIN TEMP:  59; 6HR MAX TEMP:  70;

DICKINSON      CLEAR     50  33  52 W8        29.88R
GARRISON         N/A     58  41  53 W8        29.84R
6HR MIN TEMP:  58; 6HR MAX TEMP:  65;

HETTINGER ARPT CLEAR     50  30  46 W6        29.94R
$$

NDZ004>008-012>016-024-026-027-054-230100-
NORTHEAST NORTH DAKOTA

CITY           SKY/WX    TMP DP  RH WIND       PRES   REMARKS
GRAND FORKS    CLOUDY    55  53  93 SW6       29.83R
GRND FRKS AFB  CLOUDY    55  54  99 SW8       29.84R
DEVILS LAKE    CLOUDY    55  46  71 SW10      29.79R
$$

NDZ022-023-025-028>030-036>039-047>053-230100-
SOUTHEAST NORTH DAKOTA

CITY           SKY/WX    TMP DP  RH WIND       PRES   REMARKS
FARGO          CLOUDY    56  53  90 SW9       29.87R
6HR MIN TEMP:  56; 6HR MAX TEMP:  68; 6HR PCP:  0.04;

JAMESTOWN      MOCLDY    52  49  89 S8        29.85S
$$




USA.gov is the U.S. government's official web portal to all federal, state and local government web resources and services.